Willimantic, CT

8:10 AM EST on December 06, 2019 (GMT -0500)
Windham

Weather History for KIJD - October, 2019

Change the Weather History Date:

Sunday, October 6, 2019

  Actual Average Record
Temperature  
Mean Temperature 52 °F -  
Max Temperature 69 °F 66 °F 84 °F (2007)
Min Temperature 36 °F 39 °F 22 °F (1984)
Degree Days  
Heating Degree Days 13    
Growing Degree Days 2 (Base 50)    
Moisture  
Dew Point 47 °F    
Average Humidity 85    
Maximum Humidity 100    
Minimum Humidity 65    
Precipitation  
Precipitation 0.00 in - - ()
Sea Level Pressure  
Sea Level Pressure 30.36 in    
Wind  
Wind Speed 3 mph ()    
Max Wind Speed 12 mph    
Max Gust Speed 20 mph    
Visibility 9.1 miles    
Events      
Averages and records for this station are not official NWS values.
T = Trace of Precipitation, MM = Missing Value Source: Averaged Metar Reports

Daily Weather History Graph

Daily Weather History Graph

Search for Another Location

Airport or City:

Astronomy

Oct. 06, 2019 Rise Set
Actual Time 6:50 AM EDT 6:22 PM EDT
Civil Twilight 6:22 AM EDT 6:50 PM EDT
Nautical Twilight 5:50 AM EDT 7:22 PM EDT
Astronomical Twilight 5:18 AM EDT 7:54 PM EDT
Moon 3:05 PM EDT No Moon Set
Length of Visible Light 12h 27m
Length of Day
11h 31m
First Quarter, 59% of the Moon is Illuminated
Oct 6
First Quarter
Oct 13
Full
Oct 21
Last Quarter
Oct 27
New
Nov 4
First Quarter

Hourly Weather History & Observations

Time (EDT) Temp. Dew Point Humidity Pressure Visibility Wind Dir Wind Speed Gust Speed Precip Events Conditions
12:33 AM 37.9 °F 36.0 °F 93% 30.42 in 10.0 mi Calm Calm - N/A   Scattered Clouds
12:52 AM 37.0 °F 36.0 °F 96% 30.43 in 8.0 mi Calm Calm - N/A   Clear
1:12 AM 36.0 °F 35.1 °F 97% 30.43 in 1.8 mi Calm Calm - N/A   Scattered Clouds
1:20 AM 36.0 °F 36.0 °F 100% 30.43 in 0.8 mi Calm Calm - N/A   Mostly Cloudy
1:24 AM 36.0 °F 36.0 °F 100% 30.43 in 2.0 mi Calm Calm - N/A   Mostly Cloudy
1:31 AM 36.0 °F 36.0 °F 100% 30.43 in 10.0 mi Calm Calm - N/A   Overcast
1:52 AM 37.0 °F 36.0 °F 96% 30.43 in 10.0 mi Calm Calm - N/A   Overcast
2:52 AM 37.0 °F 36.0 °F 96% 30.43 in 10.0 mi Calm Calm - N/A   Overcast
3:21 AM 37.9 °F 36.0 °F 93% 30.42 in 10.0 mi Calm Calm - N/A   Overcast
3:52 AM 37.9 °F 36.0 °F 93% 30.42 in 10.0 mi Calm Calm - N/A   Overcast
4:52 AM 37.9 °F 36.0 °F 93% 30.41 in 10.0 mi Calm Calm - N/A   Mostly Cloudy
5:52 AM 39.0 °F 37.0 °F 93% 30.40 in 10.0 mi Calm Calm - N/A   Overcast
6:52 AM 37.0 °F 36.0 °F 96% 30.39 in 10.0 mi Calm Calm - N/A   Clear
7:52 AM 39.0 °F 37.9 °F 96% 30.39 in 10.0 mi Calm Calm - N/A   Clear
8:52 AM 46.9 °F 42.1 °F 83% 30.38 in 10.0 mi Calm Calm - N/A   Clear
9:52 AM 57.9 °F 48.0 °F 70% 30.36 in 10.0 mi Variable 4.6 mph - N/A   Mostly Cloudy
10:52 AM 63.0 °F 51.1 °F 65% 30.36 in 10.0 mi South 11.5 mph 16.1 mph N/A   Overcast
11:52 AM 63.0 °F 51.1 °F 65% 30.35 in 10.0 mi South 11.5 mph - N/A   Overcast
12:52 PM 63.0 °F 52.0 °F 67% 30.35 in 10.0 mi South 10.4 mph - N/A   Overcast
2:52 PM 64.0 °F 55.0 °F 73% 30.31 in 10.0 mi South 4.6 mph - N/A   Overcast
3:22 PM 64.9 °F 55.9 °F 73% 30.30 in 10.0 mi South 8.1 mph - N/A   Overcast
3:52 PM 64.9 °F 57.0 °F 75% 30.30 in 10.0 mi South 9.2 mph - N/A   Overcast
4:52 PM 64.9 °F 57.9 °F 78% 30.28 in 10.0 mi South 10.4 mph - N/A   Overcast
5:52 PM 66.0 °F 59.0 °F 78% 30.27 in 10.0 mi South 6.9 mph - N/A   Unknown
6:52 PM 66.0 °F 60.1 °F 81% 30.27 in 10.0 mi South 8.1 mph - N/A   Overcast
7:52 PM 66.0 °F 60.1 °F 81% 30.27 in 10.0 mi SSW 8.1 mph - N/A   Overcast
8:52 PM 66.9 °F 60.1 °F 79% 30.27 in 10.0 mi SSW 9.2 mph - N/A   Overcast
9:52 PM 66.9 °F 60.1 °F 79% 30.26 in 10.0 mi SSW 9.2 mph - N/A   Overcast
10:52 PM 68.0 °F 60.1 °F 76% 30.26 in 10.0 mi SSW 9.2 mph - N/A   Overcast
11:52 PM 66.9 °F 60.1 °F 79% 30.25 in 10.0 mi SSW 10.4 mph 19.6 mph N/A   Overcast